Regional Weather Roundup
Issued by NWS

Current Version | Previous Version | Text Only | Print | Product List | Glossary On
Versions: 1 2 3 4 5 6 7 8 9 10 11 12 13 14 15 16 17 18 19 20 21 22 23 24 25 26 27 28 29 30 31 32 33 34 35 36 37 38 39 40 41 42 43 44 45 46 47 48 49 50
000
ASHW40 PHFO 010443
RWRHI

WEATHER ROUNDUP FOR HAWAII
NATIONAL WEATHER SERVICE HONOLULU HI
600 PM HST TUE JUN 30 2015

THIS IS AN AUTOMATED REPORT THAT HAS NOT BEEN QUALITY CONTROLLED.

NOTE..."FAIR" INDICATES FEW OR NO CLOUDS BELOW 12,000 FEET WITH NO
SIGNIFICANT WEATHER AND/OR OBSTRUCTIONS TO VISIBILITY.

* - THESE SITES REPORT LIMITED FIELDS

HIZ001>004-010500-
KAUAI-NIIHAU-

CITY           SKY/WX    TMP DP  RH WIND       PRES   REMARKS
LIHUE APT      PTSUNNY   81  72  74 S9        29.92R
PORT ALLEN*    NOT AVBL
POIPU*           N/A     82 N/A N/A S7          N/A
PRINCEVILLE*     N/A     81 N/A N/A MISG        N/A
KOKOLE POINT*  NOT AVBL
MOLOAA DAIRY*  NOT AVBL
WAIMEA HTS*      N/A     81  70  69 W5G13       N/A
PUU OPAE*        N/A     73  68  83 SW3G9       N/A
PUU LUA*       NOT AVBL
MAKAHA RIDGE*    N/A     79  70  73 SW3         N/A
$$

HIZ005>011-010500-
OAHU-

CITY           SKY/WX    TMP DP  RH WIND       PRES   REMARKS
HONOLULU       MOSUNNY   83  71  67 S6        29.91R
KALAELOA       SUNNY     82  70  66 SW7       29.92R
KANEOHE MCB    CLOUDY    81  72  74 E3        29.89R
WHEELER FIELD  PTSUNNY   82  68  62 SE6       29.91R
BELLOWS*         N/A    N/A N/A N/A E8          N/A
KAHUKU*          N/A    N/A N/A N/A E8          N/A
WHEELER*       NOT AVBL
WAIANAE HARBOR NOT AVBL
DILLINGHAM*      N/A     88  64  45 MISG        N/A
KAHUKU TRN*      N/A     82  72  69 SE5G13      N/A
KAWAILOA*        N/A     81  68  65 NE3         N/A
KII*             N/A     81  73  78 E10         N/A
MAKUA RANGE*     N/A     88  64  45 W3G10       N/A
OAHU FOREST NW   N/A     70  68  94 CALM        N/A
SCHOFIELD BRK*   N/A    N/A N/A N/A MISG        N/A
SCHOFIELD S*   NOT AVBL
WAIANAE VLY*     N/A     91  77  62 MISG        N/A  HX 105
KUAOKALA*        N/A     79  63  57 N6G12       N/A
HONOULIUULI*   NOT AVBL
MOKUOLOE IS*     N/A    N/A N/A N/A MISG        N/A
PALEHUA*         N/A     72  63  73 W3G9        N/A
WAIAWA PHB*    NOT AVBL
$$

HIZ012>013-010500-
MOLOKAI-

CITY           SKY/WX    TMP DP  RH WIND       PRES   REMARKS
MOLOKAI AIRPT  MOSUNNY   81  70  69 VRB3      29.92S
KALAUPAPA      NOT AVBL
MAKAPULAPAI*     N/A     81  72  74 E12G17      N/A
MOLOKAI 1*       N/A     81  77  89 CALM        N/A
PUU ALII*        N/A     70  64  80 CALM        N/A
$$

HIZ016-010500-
KAHOOLAWE-

CITY           SKY/WX    TMP DP  RH WIND       PRES   REMARKS
KAHOOLAWE*     NOT AVBL
HAKIOAWA*        N/A     78  71  79 MISG      30.36R
HONOKANAIA*      N/A     86  73  65 W5        29.93R HX  93
KANELOA*         N/A     81  70  69 NE13G23   29.97S
KEALIALALO*      N/A     81  70  69 N3G13     29.93R
LUA MAKIKA*    NOT AVBL
$$

HIZ014>015-010500-
LANAI-

CITY           SKY/WX    TMP DP  RH WIND       PRES   REMARKS
LANAI CITY     FAIR      77  72  83 W6        29.98R
LANAI 1*         N/A     79  72  78 NE10G17     N/A
$$

HIZ017>028-010500-
MAUI-

CITY           SKY/WX    TMP DP  RH WIND       PRES   REMARKS
KAHULUI        MOSUNNY   84  71  65 NW7       29.90R
KAPALUA-W MAUI MOSUNNY   84  70  61 NE9       29.90R
HANA AIRPORT   MOSUNNY   81  72  74 E2        29.95R
HANA*            N/A     82 N/A N/A E6          N/A
HALEAKALA SUMM   N/A     55  18  22 S6          N/A
MAALAEA BAY*   NOT AVBL
HALEAKALA*     NOT AVBL
KAUPO GAP*       N/A     72  70  94 S3G9        N/A
KULA 1*          N/A     65  59  81 NW6G12      N/A
$$

HIZ023>026-010500-
BIG ISLAND OF HAWAII COAST AND LOWER SLOPES-

CITY           SKY/WX    TMP DP  RH WIND       PRES   REMARKS
KAILUA KONA    SUNNY     84  72  67 SW9       29.89R
HILO           MOSUNNY   81  73  76 SE8       29.91S
HONOKAA*       NOT AVBL
KAWAIHAE MWT*    N/A     84 N/A N/A W9          N/A
KAWAIHAE*        N/A     81 N/A N/A W3          N/A
SOUTH POINT*     N/A     77 N/A N/A NE12G17     N/A
UPOLU AIRPORT*   N/A    N/A N/A N/A E12         N/A
KAMUELA*       MOCLDY    73  64  73 W6        30.04R
HAKALAU*         N/A     62  59  91 SE1G8       N/A
KALOKO-HONOKO*   N/A     82  72  69 W7        29.89R
PALI 2*          N/A     72  66  83 NW10        N/A
KEALAKOMO*       N/A     70  59  68 E12G20      N/A
KAUPULEHU*       N/A     81  68  65 W12G20      N/A
KAPAPALA*        N/A     72  69  89 NW2         N/A
LOWER KAHUKU*    N/A     66  64  94 N2          N/A
PUHE CS*         N/A     84  73  70 SW3         N/A  HX  91
PUHO CS*         N/A     82  71  68 W3G9        N/A
PTA KEAMUKU*     N/A     73  63  68 CALM        N/A
WAIKOLOA*        N/A     81  70  69 W9          N/A
$$

HIZ027>028-010500-
BIG ISLAND OF HAWAII INTERIOR AND SUMMMITS-

CITY           SKY/WX    TMP DP  RH WIND       PRES   REMARKS
BRADSHAW FIELD PTSUNNY   63  59  88 W3        30.28R
MK VISITOR CEN   N/A      0   0 100 MISG        N/A
MAUNA KEA*       N/A     43  14  31 NW7         N/A
MAUNA LOA*       N/A     46  43  87 MISG        N/A
MAUNA LOA 1*   NOT AVBL
PTA KIPUKA*      N/A     77  72  83 N6G14       N/A
PTA RANGE 17*    N/A     68  61  77 NW8G16      N/A
PTA WEST*        N/A     68  64  88 NW7G15      N/A
NENE CABIN*      N/A     59 N/A N/A E5          N/A
AHUMOA*          N/A     60  59  96 VRB7        N/A
PTA PORTABLE*  NOT AVBL
PUU MALI*        N/A     61  59  94 E6G12       N/A
$$

HIC003-010500-
NORTHWEST ISLANDS-

CITY           SKY/WX    TMP DP  RH WIND       PRES   REMARKS
MIDWAY ISLAND  PTSUNNY   82  75  78 N8        30.05F
MIDWAY NOS*    NOT AVBL
FRENCH FRIGATE NOT AVBL
$$

PHZ110>124-180-010500-
BUOY REPORTS

STATION/POSITION TIME  TEMP    WIND        PRES    WAVE   SWELL
                       AIR SEA DIR/SP/G            HT/PER HT/DIR
                 (UTC) (F)     (DEG/KT/KT) (MB)    (FT/S) (FT/D)
BUOY 51001       NOT AVBL
BUOY 51101       0400   78 80  260/ 12/ 14 1011.6F   4/ 8   5/ 90
BUOY 51100       NOT AVBL
BUOY 51002       0400   81 81   70/ 14/ 16 1011.1R   7/16   5/ 80
BUOY 51003       0400   81 83   60/  4/  8 1012.8R   5/ 8   5
BUOY 51004       0251   80 80   90/ 14/ 17 1011.2R   8/ 9   7/100
BARBERS PT BUOY  NOT AVBL
WAIMEA BAY BUOY  0400      80                N/A     3/ 8
KAILUA BAY BUOY  0400      80                N/A     4/ 8   2/140
LANAI BUOY       NOT AVBL
BARBERS PT 2     0400      82                N/A     3/11   2/160
PAUWELA MAUI     0400      79                N/A     4/ 8   2/ 40
HILO             0400      80                N/A     6/10   2/130
KANEOHE BAY BUOY 0400      79                N/A     3/ 8
HANALEI KAUAI    0400      84                N/A     4/ 8   2/ 60
KAHULUI HARBOR   0400   80 82  360/  8/ 11 1012.6R
HONOLULU HARBOR  0400   81 82  200/  5/  7 1013.0R
KILO NALU        NOT AVBL
HILO HARBOR      0400   85 79  120/  7/ 10 1012.7R
MOKUOLOE         0400   81 83  100/  7/ 10 1012.8S
NAWILIWILI       0400   80 81  170/  3/  8 1012.7R
WHOTS BUOY       NOT AVBL
BUOY 51028       NOT AVBL
$$

......................KEY........................................
  SKY/WX - SKY CONDITIONS/PRESENT WEATHER
  TMP    - TEMPERATURE IN FAHRENHEIT
  DWPT   - DEWPOINT IN FAHRENHEIT
  RH     - RELATIVE HUMIDITY IN PERCENT
  WIND   - DIRECTION AND SPEED /MPH FOR ISLANDS...KTS FOR BUOYS/
  PRES   - MEAN SEA LEVEL PRESSURE IN INCHES OF HG
  VSB    - VISIBILITY IN MILES
  HX     - HEAT INDEX
  WCI    - WIND CHILL INDEX
  VRB    - VARIABLE WIND DIRECTION
  N/A    - NOT AVAILABLE



USA.gov is the U.S. government's official web portal to all federal, state and local government web resources and services.